Orbital Elements at Epoch 2459000.5 (2020-May-31.0) TDB
Reference: JPL 18 (heliocentric ecliptic J2000)
Element | Value | Uncertainty (1-sigma) | Units |
e | .1492282439256586 | 5.3054e-08 | |
a | 2.268652648707069 | 7.9194e-09 | au |
q | 1.930105597863219 | 1.1998e-07 | au |
i | 8.051123130051382 | 4.7464e-06 | deg |
node | 17.62397762469098 | 2.805e-05 | deg |
peri | 353.5303711803567 | 3.2933e-05 | deg |
M | 122.8689364183554 | 1.5735e-05 | deg |
tp | 2458574.519190150597 (2019-Apr-01.01919015) | 5.3866e-05 | TDB |
period | 1248.10302763291 3.42 | 6.5353e-06 1.789e-08 | d yr |
n | .2884377267177679 | 1.5103e-09 | deg/d |
Q | 2.607199699550919 | 9.1012e-09 | au |
|
| | Orbit Determination Parameters
Additional Information
|